Location: ?astrovice
(49.6513°N, 14.9287°E)
Time: 18:26:07
(UTC+00:00)

Resurs 01 Rocket - Pass Details

Date: 09 April 2020
Orbit: 635 x 643 km, 98.0° (Epoch: 24 May)

Event Time Altitude Azimuth Distance (km) Brightness Sun altitude
Exits shadow 20:55:17 - 236° (SW) 2,217 4.4 -26.1°
Reaches altitude 10° 20:56:13 10° 246° (WSW) 2,025 4.3 -26.2°
Maximum altitude 20:58:12 13° 273° (W) 1,847 4.4 -26.4°
Drops below altitude 10° 21:00:11 10° 300° (WNW) 2,034 5.0 -26.6°
Sets 21:03:40 0° 329° (NNW) 2,952 6.4 -26.9°
